Location: ????????
(48.4751°N, 37.6926°E)
Time: 13:08:20
(UTC+00:00)

Cosmos 1602 Rocket - Pass Details

Date: 20 January 2021
Orbit: 604 x 632 km, 82.5° (Epoch: 26 February)

Event Time Altitude Azimuth Distance (km) Brightness Sun altitude
Rises 16:48:58 0° 195° (SSW) 2,851 7.2 -26.1°
Reaches altitude 10° 16:51:10 10° 198° (SSW) 1,955 6.3 -26.4°
Enters shadow 16:54:23 47° 219° (SW) 812 4.3 -27.0°
